Location: Tamazert
(32.6352°N, 5.2072°W)
Time: 04:28:01
(UTC+00:00)

Vanguard 2 - Pass Details

Date: 12 October 2022
Orbit: 553 x 2933 km, 32.9° (Epoch: 04 December)

Event Time Altitude Azimuth Distance (km) Brightness Sun altitude
Rises 09:01:57 0° 221° (SW) 2,989 10.5 30.4°
Reaches altitude 10° 09:04:07 10° 211° (SSW) 2,240 10.0 30.8°
Maximum altitude 09:08:48 34° 146° (SE) 1,502 10.9 31.6°
Drops below altitude 10° 09:15:51 10° 84° (E) 3,405 11.6 32.8°
Sets 09:19:56 0° 77° (ENE) 4,814 12.1 33.5°
